Location: Unspecified
(41.5000°N, 0.0000°E)
Time: 02:59:40
(UTC+00:00)

Vanguard 3 - Pass Details

Date: 19 June 2019
Orbit: 507 x 3264 km, 33.4° (Epoch: 19 July)

Event Time Altitude Azimuth Distance (km) Brightness Sun altitude
Rises 09:07:14 0° 195° (SSW) 6,702 11.8 49.6°
Reaches altitude 10° 09:15:34 10° 174° (S) 5,087 11.5 51.1°
Maximum altitude 09:21:04 13° 151° (SSE) 4,316 11.5 52.1°
Drops below altitude 10° 09:25:39 10° 127° (SE) 4,106 11.5 53.0°
Sets 09:30:44 0° 102° (ESE) 4,509 11.5 53.9°
